This is the latest recevied weather packets stored in our database for station/object KD7AWQ. If no packets are shown the sender has not sent any weather packets the latest 10 day(s).
| Time | Temp. | Humidity | Pressure | Rain* | Wind** | Luminosity | Snow |
|---|---|---|---|---|---|---|---|
| 1777982328 | 11.11° C | 94% | 1181.2 hPa | 1.78 mm | - | 0 W/m² | - |
| 1777982026 | 11.11° C | 94% | 1181.4 hPa | 1.27 mm | - | 0 W/m² | - |
| 1777981724 | 11.11° C | 94% | 1181.6 hPa | 3.05 mm | - | 0 W/m² | - |
| 1777981420 | 11.11° C | 94% | 1181.4 hPa | 1.27 mm | - | 0 W/m² | - |
| 1777981116 | 11.11° C | 93% | 1181.2 hPa | 1.27 mm | - | 0 W/m² | - |
| 1777980813 | 11.11° C | 93% | 1181.1 hPa | 0 mm | - | 0 W/m² | - |
| 1777980509 | 11.11° C | 93% | 1181.4 hPa | 1.78 mm | - | 0 W/m² | - |
| 1777980206 | 11.11° C | 92% | 1181.2 hPa | 0 mm | - | 0 W/m² | - |
| 1777979902 | 11.67° C | 90% | 1181.3 hPa | 0 mm | - | 0 W/m² | - |
| 1777979597 | 11.67° C | 84% | 1181.4 hPa | 0 mm | - | 0 W/m² | - |
| 1777979294 | 11.67° C | 85% | 1181.1 hPa | 0 mm | - | 0 W/m² | - |
| 1777978991 | 11.67° C | 85% | 1181.2 hPa | 0 mm | - | 0 W/m² | - |
| 1777978688 | 11.67° C | 86% | 1181.4 hPa | 0 mm | - | 0 W/m² | - |
| 1777978383 | 11.67° C | 86% | 1181.5 hPa | 0 mm | - | 0 W/m² | - |
| 1777978080 | 11.67° C | 86% | 1181.6 hPa | 0 mm | - | 0 W/m² | - |
| 1777977778 | 11.67° C | 86% | 1181.5 hPa | 1.78 mm | - | 0 W/m² | - |
| 1777977474 | 11.67° C | 87% | 1181.4 hPa | 1.78 mm | - | 0 W/m² | - |
| 1777977172 | 11.67° C | 87% | 1181.5 hPa | 0 mm | - | 0 W/m² | - |
| 1777976869 | 11.67° C | 89% | 1181.8 hPa | 0 mm | - | 0 W/m² | - |
| 1777976566 | 11.67° C | 89% | 1182 hPa | 1.27 mm | - | 0 W/m² | - |
| 1777976266 | 11.67° C | 88% | 1181.9 hPa | 1.27 mm | - | 0 W/m² | - |
| 1777975961 | 11.67° C | 88% | 1182.4 hPa | 1.78 mm | - | 0 W/m² | - |
| 1777975658 | 11.67° C | 88% | 1182.3 hPa | 3.05 mm | - | 0 W/m² | - |
| 1777975355 | 11.67° C | 88% | 1182.6 hPa | 3.05 mm | - | 0 W/m² | - |
| 1777975050 | 11.67° C | 89% | 1182.6 hPa | 3.05 mm | - | 0 W/m² | - |
* Rain latest hour (hover to see other rain measurements)
** Current wind speed in m/s (hover to see current wind gust speed)